This is the latest recevied weather packets stored in our database for station/object IW2LSY-11. If no packets are shown the sender has not sent any weather packets the latest 10 day(s).
| Time | Temp. | Humidity | Pressure | Rain* | Wind** | Luminosity | Snow |
|---|---|---|---|---|---|---|---|
| 1777906815 | 22.78° C | 31% | 1015.5 hPa | - | - | 446 W/m² | - |
| 1777906215 | 22.78° C | 31% | 1015.8 hPa | - | - | 447 W/m² | - |
| 1777905604 | 22.22° C | 33% | 1016.2 hPa | - | - | 448 W/m² | - |
| 1777905004 | 22.22° C | 31% | 1016.4 hPa | - | - | 448 W/m² | - |
| 1777904404 | 21.67° C | 30% | 1016.4 hPa | - | - | 448 W/m² | - |
| 1777903805 | 22.78° C | 31% | 1016.4 hPa | - | - | 449 W/m² | - |
| 1777903205 | 23.33° C | 31% | 1016.4 hPa | - | - | 450 W/m² | - |
| 1777902606 | 22.22° C | 31% | 1016.6 hPa | - | - | 449 W/m² | - |
| 1777902006 | 22.78° C | 31% | 1016.6 hPa | - | - | 450 W/m² | - |
| 1777901407 | 22.78° C | 30% | 1016.6 hPa | - | - | 451 W/m² | - |
| 1777900807 | 22.22° C | 31% | 1016.6 hPa | - | - | 451 W/m² | - |
| 1777900208 | 22.78° C | 31% | 1016.6 hPa | - | - | 451 W/m² | - |
| 1777899608 | 22.78° C | 32% | 1016.6 hPa | - | - | 453 W/m² | - |
| 1777899008 | 22.22° C | 32% | 1016.6 hPa | - | - | 453 W/m² | - |
| 1777898409 | 22.78° C | 31% | 1016.7 hPa | - | - | 455 W/m² | - |
| 1777897809 | 22.78° C | 30% | 1016.8 hPa | - | - | 455 W/m² | - |
| 1777897210 | 22.22° C | 31% | 1016.7 hPa | - | - | 457 W/m² | - |
| 1777896611 | 22.22° C | 31% | 1016.7 hPa | - | - | 457 W/m² | - |
| 1777896011 | 22.22° C | 30% | 1016.7 hPa | - | - | 458 W/m² | - |
| 1777895411 | 23.33° C | 30% | 1016.7 hPa | - | - | 458 W/m² | - |
| 1777894812 | 23.33° C | 30% | 1016.7 hPa | - | - | 458 W/m² | - |
| 1777894212 | 22.78° C | 31% | 1016.8 hPa | - | - | 459 W/m² | - |
| 1777893612 | 22.78° C | 32% | 1017 hPa | - | - | 458 W/m² | - |
| 1777893013 | 23.33° C | 31% | 1017.1 hPa | - | - | 455 W/m² | - |
| 1777892413 | 23.33° C | 31% | 1017.1 hPa | - | - | 454 W/m² | - |
* Rain since midnight (hover to see other rain measurements)
** Current wind speed in m/s (hover to see current wind gust speed)